TimeEST,TemperatureF,Dew PointF,Humidity,Sea Level PressureIn,VisibilityMPH,Wind Direction,Wind SpeedMPH,Gust SpeedMPH,PrecipitationIn,Events,Conditions,WindDirDegrees,DateUTC
12:15 AM,55.6,55.4,99,30.21,3.0,Calm,Calm,-,N/A,,Clear,0,2013-11-17 05:15:00
12:35 AM,54.7,54.5,99,30.20,4.0,Calm,Calm,-,N/A,,Clear,0,2013-11-17 05:35:00
12:55 AM,54.0,54.0,100,30.19,2.0,Calm,Calm,-,N/A,,Clear,0,2013-11-17 05:55:00
1:15 AM,54.9,54.9,100,30.19,4.0,Calm,Calm,-,N/A,,Clear,0,2013-11-17 06:15:00
1:35 AM,54.3,54.3,100,30.18,4.0,Calm,Calm,-,N/A,,Clear,0,2013-11-17 06:35:00
1:55 AM,54.0,54.0,100,30.18,7.0,Calm,Calm,-,N/A,,Scattered Clouds,0,2013-11-17 06:55:00
2:15 AM,53.2,53.2,100,30.17,4.0,Calm,Calm,-,N/A,,Mostly Cloudy,0,2013-11-17 07:15:00
2:35 AM,54.0,54.0,100,30.16,5.0,Calm,Calm,-,N/A,,Overcast,0,2013-11-17 07:35:00
2:55 AM,54.5,54.5,100,30.16,3.0,Calm,Calm,-,N/A,,Overcast,0,2013-11-17 07:55:00
3:15 AM,54.3,54.3,100,30.16,0.8,Calm,Calm,-,N/A,,Overcast,0,2013-11-17 08:15:00
3:35 AM,54.5,54.5,100,30.15,0.2,Calm,Calm,-,N/A,Fog,Fog,0,2013-11-17 08:35:00
3:55 AM,54.0,54.0,100,30.15,0.2,Calm,Calm,-,N/A,Fog,Fog,0,2013-11-17 08:55:00
4:15 AM,54.0,54.0,100,30.15,0.2,Calm,Calm,-,N/A,Fog,Fog,0,2013-11-17 09:15:00
4:35 AM,54.0,54.0,100,30.16,0.2,Calm,Calm,-,N/A,Fog,Fog,0,2013-11-17 09:35:00
4:55 AM,54.0,54.0,100,30.16,0.5,NNW,3.5,-,N/A,Fog,Fog,330,2013-11-17 09:55:00
5:15 AM,53.4,53.4,100,30.15,0.5,Calm,Calm,-,N/A,Fog,Fog,0,2013-11-17 10:15:00
5:35 AM,53.1,53.1,100,30.16,0.5,Calm,Calm,-,N/A,Fog,Fog,0,2013-11-17 10:35:00
5:55 AM,53.4,53.4,100,30.15,0.5,Calm,Calm,-,N/A,Fog,Fog,0,2013-11-17 10:55:00
6:15 AM,53.8,53.8,100,30.15,0.5,Calm,Calm,-,N/A,Fog,Fog,0,2013-11-17 11:15:00
6:35 AM,53.8,53.8,100,30.14,0.5,Calm,Calm,-,N/A,Fog,Fog,0,2013-11-17 11:35:00
6:55 AM,53.8,53.8,100,30.14,0.2,Calm,Calm,-,N/A,Fog,Fog,0,2013-11-17 11:55:00
7:15 AM,54.0,54.0,100,30.15,0.2,Calm,Calm,-,N/A,Fog,Fog,0,2013-11-17 12:15:00
7:35 AM,54.0,54.0,100,30.16,0.2,Calm,Calm,-,N/A,Fog,Fog,0,2013-11-17 12:35:00
7:55 AM,54.0,54.0,100,30.16,0.2,Calm,Calm,-,N/A,Fog,Fog,0,2013-11-17 12:55:00
8:15 AM,54.9,54.9,100,30.17,0.2,Calm,Calm,-,N/A,Fog,Fog,0,2013-11-17 13:15:00
8:35 AM,55.6,55.6,100,30.17,0.2,Calm,Calm,-,N/A,Fog,Fog,0,2013-11-17 13:35:00
8:55 AM,55.9,55.9,100,30.18,0.5,Calm,Calm,-,N/A,Fog,Fog,0,2013-11-17 13:55:00
9:15 AM,56.1,56.1,100,30.19,0.8,Calm,Calm,-,N/A,,Overcast,0,2013-11-17 14:15:00
9:35 AM,57.2,57.2,100,30.18,1.0,Calm,Calm,-,N/A,,Overcast,0,2013-11-17 14:35:00
9:55 AM,58.1,58.1,100,30.18,2.0,Calm,Calm,-,N/A,,Overcast,0,2013-11-17 14:55:00
10:15 AM,58.3,58.3,100,30.18,3.0,Calm,Calm,-,N/A,,Overcast,0,2013-11-17 15:15:00
10:35 AM,59.0,59.0,100,30.17,4.0,Calm,Calm,-,N/A,,Overcast,0,2013-11-17 15:35:00
10:55 AM,59.4,59.4,100,30.17,5.0,Calm,Calm,-,N/A,,Overcast,0,2013-11-17 15:55:00
11:15 AM,61.0,61.0,100,30.16,7.0,Calm,Calm,-,N/A,,Overcast,0,2013-11-17 16:15:00
11:35 AM,62.8,62.6,99,30.15,10.0,Calm,Calm,-,N/A,,Scattered Clouds,0,2013-11-17 16:35:00
11:55 AM,64.4,62.6,94,30.13,10.0,Calm,Calm,-,N/A,,Scattered Clouds,0,2013-11-17 16:55:00
12:15 PM,68.0,63.1,84,30.13,10.0,Calm,Calm,-,N/A,,Scattered Clouds,0,2013-11-17 17:15:00
12:35 PM,69.3,63.0,80,30.11,10.0,Calm,Calm,-,N/A,,Scattered Clouds,0,2013-11-17 17:35:00
12:55 PM,72.3,62.2,70,30.10,10.0,SE,4.6,-,N/A,,Clear,140,2013-11-17 17:55:00
1:15 PM,73.6,62.6,68,30.08,10.0,SSE,3.5,-,N/A,,Clear,160,2013-11-17 18:15:00
1:35 PM,73.6,62.2,68,30.07,10.0,Calm,Calm,-,N/A,,Scattered Clouds,0,2013-11-17 18:35:00
1:55 PM,74.3,62.1,65,30.06,10.0,South,4.6,-,N/A,,Scattered Clouds,180,2013-11-17 18:55:00
2:15 PM,74.3,62.1,65,30.05,10.0,South,4.6,-,N/A,,Scattered Clouds,170,2013-11-17 19:15:00
2:35 PM,75.2,61.5,62,30.04,10.0,South,4.6,-,N/A,,Scattered Clouds,180,2013-11-17 19:35:00
2:55 PM,75.0,62.2,64,30.03,10.0,South,5.8,-,N/A,,Mostly Cloudy,170,2013-11-17 19:55:00
3:15 PM,74.7,62.2,65,30.02,10.0,South,5.8,-,N/A,,Mostly Cloudy,170,2013-11-17 20:15:00
3:35 PM,74.3,62.1,65,30.04,10.0,South,4.6,-,N/A,,Overcast,190,2013-11-17 20:35:00
3:55 PM,74.1,62.6,67,30.03,10.0,SSE,4.6,-,N/A,,Overcast,160,2013-11-17 20:55:00
4:15 PM,73.8,62.6,68,30.03,10.0,South,3.5,-,N/A,,Overcast,170,2013-11-17 21:15:00
4:35 PM,73.4,62.6,69,30.04,10.0,South,3.5,-,N/A,,Overcast,170,2013-11-17 21:35:00
4:55 PM,71.6,63.3,75,30.04,7.0,SE,3.5,-,N/A,Rain,Rain,140,2013-11-17 21:55:00
5:15 PM,70.2,63.7,80,30.04,10.0,SSE,4.6,-,N/A,,Overcast,150,2013-11-17 22:15:00
5:35 PM,69.8,64.4,83,30.04,10.0,SE,3.5,-,N/A,,Overcast,140,2013-11-17 22:35:00
5:55 PM,69.3,65.5,88,30.03,10.0,SE,3.5,-,N/A,,Overcast,130,2013-11-17 22:55:00
6:15 PM,68.9,66.0,90,30.03,10.0,Calm,Calm,-,N/A,,Overcast,0,2013-11-17 23:15:00
6:35 PM,68.4,66.2,93,30.04,10.0,Calm,Calm,-,N/A,,Mostly Cloudy,0,2013-11-17 23:35:00
6:55 PM,68.0,66.7,96,30.02,10.0,SE,3.5,-,N/A,,Mostly Cloudy,140,2013-11-17 23:55:00
7:15 PM,68.0,67.1,97,30.01,10.0,SE,5.8,-,N/A,Rain,Light Rain,140,2013-11-18 00:15:00
7:35 PM,68.0,67.5,98,30.00,10.0,SE,5.8,-,N/A,,Mostly Cloudy,140,2013-11-18 00:35:00
7:55 PM,68.0,67.6,99,30.00,10.0,SSE,5.8,-,N/A,,Overcast,150,2013-11-18 00:55:00
8:15 PM,68.0,68.0,100,30.00,10.0,SSE,5.8,-,N/A,,Overcast,160,2013-11-18 01:15:00
8:35 PM,68.0,68.0,100,29.99,10.0,SSE,4.6,-,N/A,,Overcast,160,2013-11-18 01:35:00
8:55 PM,68.0,68.0,100,29.99,5.0,SSE,4.6,-,N/A,,Overcast,160,2013-11-18 01:55:00
9:15 PM,68.0,68.0,100,29.99,3.0,South,6.9,-,N/A,Rain,Light Rain,190,2013-11-18 02:15:00
9:35 PM,68.0,68.0,100,29.99,2.5,South,4.6,-,N/A,,Overcast,180,2013-11-18 02:35:00
9:55 PM,68.0,68.0,100,29.98,2.5,SSE,5.8,-,N/A,,Overcast,160,2013-11-18 02:55:00
10:15 PM,68.0,68.0,100,29.98,1.8,South,6.9,-,N/A,,Overcast,180,2013-11-18 03:15:00
10:35 PM,68.2,68.2,100,29.98,1.8,South,9.2,-,N/A,,Overcast,170,2013-11-18 03:35:00
10:55 PM,68.4,68.4,100,29.98,10.0,South,8.1,-,N/A,Rain,Light Rain,190,2013-11-18 03:55:00
11:15 PM,68.4,68.4,100,29.98,10.0,South,8.1,-,N/A,Rain,Light Rain,190,2013-11-18 04:15:00
11:35 PM,68.4,68.4,100,29.98,10.0,SSW,6.9,-,N/A,Rain,Light Rain,210,2013-11-18 04:35:00
11:55 PM,68.2,68.2,100,29.97,10.0,South,6.9,-,N/A,,Mostly Cloudy,190,2013-11-18 04:55:00